Location: ?????
(32.7281°N, 34.9563°E)
Time: 17:07:31
(UTC+00:00)

ARGOS - Pass Details

Date: 29 October 2020
Orbit: 820 x 835 km, 98.4° (Epoch: 30 November)

Event Time Altitude Azimuth Distance (km) Brightness Sun altitude
Exits shadow 16:35:48 33° 35° (NE) 1,374 4.0 -22.4°
Drops below altitude 10° 16:39:18 10° 4° (N) 2,450 5.5 -23.1°
Sets 16:41:47 0° 357° (N) 3,388 6.4 -23.6°
